| time (UTC) | temp C | wind direction | speed KPH | gust KPH | rain 1hr cm | rain 24hr cm | rain mn cm | humidity % | barometer mb |
| 20260509161507 | 27 | 288 | 0.0 | 14.5 | 0.00 | 0.00 | 0.00 | 64 | 1008.7 |
| 20260509160002 | 27 | 288 | 0.0 | 6.4 | 0.00 | 0.00 | 0.00 | 65 | 1008.6 |
| 20260509154609 | 26 | 288 | 0.0 | 8.0 | 0.00 | 0.00 | 0.00 | 70 | 1008.6 |
| 20260509153054 | 25 | 288 | 0.0 | 11.3 | 0.00 | 0.00 | 0.00 | 72 | 1008.6 |
| 20260509151554 | 25 | 288 | 4.8 | 19.3 | 0.00 | 0.00 | 0.00 | 73 | 1008.7 |
| 20260509150050 | 25 | 285 | 3.2 | 16.1 | 0.00 | 0.00 | 0.00 | 74 | 1008.7 |
| 20260509144602 | 24 | 285 | 0.0 | 14.5 | 0.00 | 0.00 | 0.00 | 77 | 1008.7 |
| 20260509143044 | 23 | 277 | 1.6 | 16.1 | 0.00 | 0.00 | 0.00 | 81 | 1008.7 |
| 20260509141541 | 23 | 270 | 0.0 | 9.7 | 0.00 | 0.00 | 0.00 | 90 | 1008.7 |
| 20260509140054 | 22 | 270 | 1.6 | 9.7 | 0.00 | 0.00 | 0.00 | 96 | 1008.8 |
| 20260509134533 | 21 | 269 | 0.0 | 6.4 | 0.00 | 0.00 | 0.00 | 98 | 1008.7 |
| 20260509133030 | 21 | 269 | 0.0 | 4.8 | 0.00 | 0.00 | 0.00 | 100 | 1008.6 |
| 20260509131536 | 21 | 269 | 0.0 | 3.2 | 0.00 | 0.00 | 0.00 | 100 | 1008.7 |
| 20260509130032 | 20 | 269 | 0.0 | 11.3 | 0.00 | 0.00 | 0.00 | 100 | 1008.6 |
| 20260509124534 | 20 | 268 | 0.0 | 1.6 | 0.00 | 0.00 | 0.00 | 100 | 1008.6 |
| 20260509123027 | 19 | 268 | 0.0 | 4.8 | 0.00 | 0.00 | 0.00 | 100 | 1008.4 |
| 20260509121538 | 19 | 268 | 0.0 | 1.6 | 0.00 | 0.00 | 0.00 | 100 | 1008.4 |
| 20260509120033 | 18 | 268 | 0.0 | 1.6 | 0.00 | 0.00 | 0.00 | 100 | 1008.3 |
| 20260509114528 | 18 | 267 | 0.0 | 3.2 | 0.00 | 0.03 | 0.00 | 100 | 1008.1 |
| 20260509113024 | 19 | 267 | 0.0 | 9.7 | 0.00 | 0.03 | 0.00 | 100 | 1007.9 |
| 20260509111524 | 19 | 258 | 0.0 | 6.4 | 0.00 | 0.03 | 0.00 | 100 | 1007.5 |
| 20260509110022 | 19 | 254 | 0.0 | 4.8 | 0.00 | 0.03 | 0.00 | 100 | 1007.3 |
| 20260509104522 | 19 | 252 | 0.0 | 14.5 | 0.00 | 0.10 | 0.00 | 100 | 1007.5 |
| 20260509103021 | 19 | 250 | 0.0 | 1.6 | 0.00 | 0.10 | 0.00 | 100 | 1006.9 |
| 20260509101523 | 20 | 250 | 0.0 | 0.0 | 0.00 | 0.10 | 0.00 | 99 | 1006.6 |
| 20260509100023 | 20 | 250 | 0.0 | 0.0 | 0.00 | 0.10 | 0.00 | 99 | 1006.8 |
| 20260509094519 | 20 | 250 | 0.0 | 0.0 | 0.00 | 0.15 | 0.00 | 98 | 1006.3 |
| 20260509093019 | 20 | 250 | 0.0 | 0.0 | 0.00 | 0.15 | 0.00 | 95 | 1006.2 |
| 20260509091520 | 21 | 250 | 0.0 | 0.0 | 0.00 | 0.15 | 0.00 | 93 | 1005.7 |
| 20260509090019 | 21 | 250 | 0.0 | 0.0 | 0.00 | 0.15 | 0.00 | 92 | 1006.0 |
| 20260509084517 | 20 | 250 | 0.0 | 3.2 | 0.00 | 0.20 | 0.00 | 94 | 1005.7 |
| 20260509083012 | 20 | 215 | 0.0 | 1.6 | 0.00 | 0.20 | 0.00 | 97 | 1004.8 |
| 20260509081512 | 20 | 215 | 0.0 | 3.2 | 0.00 | 0.20 | 0.00 | 99 | 1003.8 |
| 20260509080008 | 20 | 215 | 0.0 | 9.7 | 0.00 | 0.20 | 0.00 | 100 | 1004.4 |
| 20260509074505 | 20 | 222 | 0.0 | 14.5 | 0.00 | 1.02 | 0.00 | 100 | 1005.8 |
| 20260509073001 | 20 | 226 | 0.0 | 19.3 | 0.00 | 1.02 | 0.00 | 100 | 1006.9 |
| 20260509071559 | 20 | 223 | 0.0 | 6.4 | 0.00 | 1.02 | 0.00 | 100 | 1007.2 |
| 20260509070057 | 20 | 207 | 0.0 | 6.4 | 0.00 | 1.02 | 0.00 | 100 | 1007.9 |
| 20260509064555 | 19 | 201 | 0.0 | 4.8 | 0.00 | 1.02 | 0.00 | 100 | 1008.2 |
| 20260509063102 | 19 | 200 | 0.0 | 0.0 | 0.00 | 1.02 | 0.00 | 100 | 1008.8 |
| 20260509061551 | 19 | 200 | 0.0 | 1.6 | 0.00 | 1.02 | 0.00 | 100 | 1008.8 |
| 20260509060058 | 20 | 200 | 0.0 | 0.0 | 0.00 | 1.02 | 0.00 | 100 | 1008.9 |
| 20260509054549 | 20 | 200 | 0.0 | 0.0 | 0.00 | 1.02 | 0.00 | 100 | 1008.5 |
| 20260509053112 | 20 | 200 | 0.0 | 0.0 | 0.00 | 1.02 | 0.00 | 100 | 1008.4 |
| 20260509051544 | 20 | 200 | 0.0 | 0.0 | 0.00 | 1.02 | 0.00 | 99 | 1009.1 |
| 20260509050041 | 20 | 200 | 0.0 | 1.6 | 0.00 | 1.02 | 0.00 | 99 | 1009.9 |
| 20260509044536 | 20 | 200 | 0.0 | 0.0 | 0.00 | 1.02 | 1.02 | 99 | 1009.5 |
| 20260509043032 | 21 | 200 | 0.0 | 0.0 | 0.00 | 1.02 | 1.02 | 98 | 1008.5 |
| 20260509041536 | 21 | 200 | 0.0 | 1.6 | 0.00 | 1.02 | 1.02 | 98 | 1008.2 |
| 20260509040024 | 21 | 200 | 0.0 | 3.2 | 0.00 | 1.02 | 1.02 | 98 | 1007.6 |
| 20260509034519 | 21 | 200 | 0.0 | 1.6 | 0.00 | 1.02 | 1.02 | 97 | 1007.7 |
| 20260509033015 | 21 | 200 | 0.0 | 0.0 | 0.00 | 1.02 | 1.02 | 98 | 1007.7 |
| 20260509031510 | 21 | 200 | 0.0 | 1.6 | 0.00 | 1.02 | 1.02 | 98 | 1008.5 |
| 20260509030006 | 21 | 200 | 0.0 | 1.6 | 0.00 | 1.02 | 1.02 | 98 | 1008.3 |
| 20260509024502 | 21 | 200 | 0.0 | 1.6 | 0.00 | 1.02 | 1.02 | 97 | 1007.1 |
| 20260509023058 | 21 | 200 | 0.0 | 0.0 | 0.00 | 1.02 | 1.02 | 97 | 1007.0 |
| 20260509021554 | 21 | 200 | 0.0 | 1.6 | 0.00 | 1.02 | 1.02 | 96 | 1006.5 |
| 20260509020054 | 21 | 200 | 0.0 | 0.0 | 0.00 | 1.02 | 1.02 | 95 | 1006.3 |
| 20260509014549 | 21 | 200 | 0.0 | 0.0 | 0.00 | 1.02 | 1.02 | 94 | 1006.1 |
| 20260509013049 | 21 | 200 | 0.0 | 0.0 | 0.00 | 1.02 | 1.02 | 92 | 1006.3 |
| 20260509011537 | 22 | 200 | 0.0 | 0.0 | 0.00 | 1.02 | 1.02 | 91 | 1006.7 |
| 20260509010046 | 22 | 200 | 0.0 | 0.0 | 0.00 | 1.02 | 1.02 | 90 | 1006.7 |
| 20260509004529 | 22 | 200 | 0.0 | 1.6 | 0.00 | 1.02 | 1.02 | 90 | 1006.5 |
| 20260509003023 | 22 | 200 | 0.0 | 4.8 | 0.00 | 1.02 | 1.02 | 89 | 1006.2 |
| 20260509001518 | 22 | 200 | 0.0 | 4.8 | 0.00 | 1.02 | 1.02 | 88 | 1006.0 |
| 20260509000013 | 22 | 200 | 0.0 | 9.7 | 0.00 | 1.02 | 1.02 | 87 | 1006.1 |
| 20260508234520 | 23 | 200 | 0.0 | 6.4 | 0.00 | 1.02 | 1.02 | 86 | 1006.3 |
| 20260508233008 | 23 | 200 | 0.0 | 11.3 | 0.00 | 1.02 | 1.02 | 85 | 1006.3 |
| 20260508231604 | 23 | 200 | 0.0 | 4.8 | 0.00 | 1.02 | 1.02 | 84 | 1006.4 |
| 20260508230104 | 23 | 200 | 0.0 | 4.8 | 0.00 | 1.02 | 1.02 | 83 | 1006.3 |
| 20260508224551 | 23 | 200 | 0.0 | 6.4 | 0.00 | 1.02 | 1.02 | 81 | 1006.4 |
| 20260508223047 | 23 | 200 | 0.0 | 8.0 | 0.00 | 1.02 | 1.02 | 80 | 1006.5 |
| 20260508221548 | 23 | 200 | 0.0 | 6.4 | 0.00 | 1.02 | 1.02 | 80 | 1006.6 |
| 20260508220038 | 23 | 200 | 0.0 | 11.3 | 0.00 | 1.02 | 1.02 | 79 | 1006.5 |
| 20260508214534 | 23 | 203 | 0.0 | 8.0 | 0.00 | 1.02 | 1.02 | 80 | 1006.6 |
| 20260508213030 | 23 | 208 | 0.0 | 8.0 | 0.00 | 1.02 | 1.02 | 80 | 1006.6 |
| 20260508211525 | 23 | 215 | 0.0 | 8.0 | 0.00 | 1.02 | 1.02 | 79 | 1006.8 |
| 20260508210021 | 23 | 202 | 0.0 | 1.6 | 0.00 | 1.02 | 1.02 | 81 | 1007.0 |
| 20260508204517 | 23 | 202 | 0.0 | 8.0 | 0.00 | 1.02 | 1.02 | 81 | 1007.1 |
| 20260508203013 | 22 | 202 | 0.0 | 8.0 | 0.00 | 1.02 | 1.02 | 81 | 1007.9 |
| 20260508201509 | 22 | 213 | 0.0 | 8.0 | 0.00 | 1.02 | 1.02 | 82 | 1008.6 |
| 20260508200003 | 23 | 215 | 0.0 | 8.0 | 0.00 | 1.02 | 1.02 | 80 | 1008.8 |
| 20260508194559 | 23 | 214 | 0.0 | 6.4 | 0.00 | 1.02 | 1.02 | 78 | 1008.8 |
| 20260508193107 | 23 | 216 | 0.0 | 8.0 | 0.00 | 1.02 | 1.02 | 79 | 1008.9 |
| 20260508191556 | 24 | 216 | 0.0 | 3.2 | 0.00 | 1.02 | 1.02 | 78 | 1009.0 |
| 20260508190050 | 24 | 219 | 0.0 | 6.4 | 0.00 | 1.02 | 1.02 | 76 | 1009.0 |
| 20260508184542 | 24 | 221 | 0.0 | 6.4 | 0.00 | 1.02 | 1.02 | 77 | 1009.0 |
| 20260508183039 | 24 | 223 | 0.0 | 3.2 | 0.00 | 1.02 | 1.02 | 77 | 1009.2 |
| 20260508181535 | 23 | 223 | 0.0 | 3.2 | 0.00 | 1.02 | 1.02 | 79 | 1009.5 |
| 20260508180031 | 23 | 223 | 0.0 | 8.0 | 0.00 | 1.02 | 1.02 | 79 | 1009.9 |
| 20260508174537 | 23 | 191 | 0.0 | 6.4 | 0.00 | 1.02 | 1.02 | 81 | 1010.2 |
| 20260508173028 | 22 | 193 | 0.0 | 1.6 | 0.00 | 1.02 | 1.02 | 82 | 1010.3 |
| 20260508171523 | 22 | 196 | 0.0 | 3.2 | 0.00 | 1.02 | 1.02 | 82 | 1010.4 |
| 20260508170023 | 21 | 194 | 0.0 | 3.2 | 0.00 | 1.02 | 1.02 | 82 | 1010.8 |
| 20260508164525 | 21 | 198 | 0.0 | 1.6 | 0.00 | 1.02 | 1.02 | 84 | 1011.0 |
| 20260508163013 | 20 | 201 | 0.0 | 1.6 | 0.00 | 1.02 | 1.02 | 89 | 1011.4 |